This demonstration page uses our WeatherBlox Daily Observations layout. Learn more.

Left ArrowRight Arrow

40.92945, -100.16068

Hourly Observations for January 24, 2021

Temp ( °F °C ) Dew Point ( °F °C ) Humidity (%) Winds ( mph kmh ) Pressure ( in mb ) Visibility ( mi km ) Precip ( " mm )
12:15 am 00:15 Cloudy with Light Snow 27 -3 24 -4.5 90 90 WNW 8 13 30.08 1019 2.5 4.02335 0 0
12:35 am 00:35 Cloudy with Light Snow 27 -3 25 -4 93 93 W 7 11 30.08 1019 1.25 2.011675 0 0
12:55 am 00:55 Cloudy with Light Snow 27 -3 25 -3.8 94 94 W 6 9 30.07 1018 1.75 2.816345 0 0
1:15 am 01:15 Cloudy with Light Snow 28 -2.5 26 -3.5 93 93 NW 6 9 30.06 1018 2.5 4.02335 0 0
1:35 am 01:35 Cloudy 28 -2.3 26 -3.3 93 93 NW 8 13 30.07 1018 7 11.26538 0 0
1:55 am 01:55 Cloudy 28 -2.5 25 -3.7 92 92 NW 8 13 30.06 1018 7 11.26538 0 0
2:15 am 02:15 Mostly Cloudy 26 -3.1 24 -4.4 91 91 NNW 7 11 30.08 1019 10 16.0934 0 0
2:35 am 02:35 Cloudy 28 -2.3 25 -4 88 88 N 12 19 30.07 1018 10 16.0934 0 0
2:55 am 02:55 Cloudy 28 -2 25 -4 86 86 N 8 13 30.09 1019 10 16.0934 0 0
3:15 am 03:15 Cloudy 28 -2 25 -3.7 88 88 NNW 7 11 30.1 1019 10 16.0934 0 0
3:35 am 03:35 Cloudy 29 -1.8 26 -3.6 88 88 N 10 17 30.09 1019 10 16.0934 0 0
3:55 am 03:55 Cloudy 29 -1.8 25 -3.9 86 86 N 9 15 30.1 1019 10 16.0934 0 0
4:15 am 04:15 Cloudy 28 -2 25 -4 86 86 N 13 20 30.11 1020 10 16.0934 0 0
4:35 am 04:35 Cloudy 28 -2.1 24 -4.3 85 85 N 12 19 30.12 1020 10 16.0934 0 0
4:55 am 04:55 Cloudy 28 -2.2 24 -4.6 84 84 N 9 15 30.12 1020 10 16.0934 0 0
5:15 am 05:15 Cloudy 28 -2.5 23 -5.1 83 83 NNE 15 24 30.12 1020 10 16.0934 0 0
5:35 am 05:35 Cloudy 27 -2.9 22 -5.5 82 82 N 16 26 30.14 1021 10 16.0934 0 0
5:55 am 05:55 Cloudy 27 -3 23 -5.2 85 85 NNE 7 11 30.15 1021 10 16.0934 0 0
6:15 am 06:15 Cloudy 27 -3 23 -5.2 85 85 NNE 6 9 30.16 1021 10 16.0934 0 0
6:35 am 06:35 Cloudy 26 -3.1 22 -5.5 84 84 NNE 10 17 30.16 1021 10 16.0934 0 0
6:55 am 06:55 Cloudy 26 -3.2 22 -5.6 84 84 NNE 10 17 30.17 1022 10 16.0934 0 0
7:15 am 07:15 Cloudy 26 -3.3 21 -6 82 82 NNE 10 17 30.17 1022 10 16.0934 0 0
7:35 am 07:35 Cloudy 26 -3.4 21 -5.9 83 83 NE 9 15 30.18 1022 10 16.0934 0 0
7:55 am 07:55 Cloudy 26 -3.5 21 -6 83 83 NNE 12 19 30.17 1022 10 16.0934 0 0
8:15 am 08:15 Cloudy 26 -3.5 22 -5.7 85 85 N 8 13 30.18 1022 10 16.0934 0 0
8:35 am 08:35 Cloudy 26 -3.6 21 -6 84 84 NE 12 19 30.17 1022 10 16.0934 0 0
8:55 am 08:55 Cloudy 25 -3.7 21 -6.1 84 84 NNE 10 17 30.18 1022 10 16.0934 0 0
9:15 am 09:15 Cloudy 26 -3.6 21 -6 84 84 NE 7 11 30.19 1022 10 16.0934 0 0
9:35 am 09:35 Cloudy 26 -3.5 22 -5.8 84 84 ENE 9 15 30.19 1022 10 16.0934 0 0
9:55 am 09:55 Cloudy 26 -3.5 22 -5.8 84 84 NE 10 17 30.19 1022 10 16.0934 0 0
10:15 am 10:15 Cloudy 26 -3.5 21 -5.9 84 84 ENE 9 15 30.19 1022 10 16.0934 0 0
10:35 am 10:35 Cloudy 26 -3.2 22 -5.5 84 84 ENE 9 15 30.18 1022 10 16.0934 0 0
10:55 am 10:55 Cloudy 26 -3.2 22 -5.6 84 84 ENE 7 11 30.19 1022 10 16.0934 0 0
11:15 am 11:15 Cloudy 26 -3.1 22 -5.7 82 82 ENE 8 13 30.19 1022 10 16.0934 0 0
11:35 am 11:35 Cloudy 26 -3.1 22 -5.6 83 83 ENE 8 13 30.18 1022 10 16.0934 0 0
11:55 am 11:55 Cloudy 26 -3.1 21 -5.9 81 81 E 5 7 30.19 1022 10 16.0934 0 0
12:15 pm 12:15 Cloudy 27 -3 22 -5.7 82 82 ENE 5 7 30.17 1022 10 16.0934 0 0
12:35 pm 12:35 Cloudy 27 -3 22 -5.8 81 81 ENE 5 7 30.17 1022 10 16.0934 0 0
12:55 pm 12:55 Cloudy 27 -2.6 22 -5.8 79 79 E 5 7 30.14 1021 10 16.0934 0 0
1:15 pm 13:15 Cloudy 28 -2.5 22 -5.6 80 80 E 5 7 30.12 1020 10 16.0934 0 0
1:35 pm 13:35 Cloudy 28 -2.3 22 -5.4 80 80 SE 6 9 30.11 1020 10 16.0934 0 0
1:55 pm 13:55 Cloudy 28 -2.2 23 -5.2 80 80 ESE 6 9 30.11 1020 10 16.0934 0 0
2:15 pm 14:15 Cloudy 28 -2 23 -5.1 80 80 ESE 7 11 30.1 1019 10 16.0934 0 0
2:35 pm 14:35 Cloudy 29 -1.9 22 -5.4 77 77 SE 7 11 30.09 1019 10 16.0934 0 0
2:55 pm 14:55 Cloudy 29 -1.9 23 -5.1 79 79 E 7 11 30.08 1018 10 16.0934 0 0
3:15 pm 15:15 Cloudy 29 -1.9 23 -5.1 79 79 E 9 15 30.07 1018 10 16.0934 0 0
3:35 pm 15:35 Cloudy 28 -2 22 -5.3 78 78 E 7 11 30.07 1018 10 16.0934 0 0
3:55 pm 15:55 Cloudy 28 -2 22 -5.5 77 77 SE 9 15 30.06 1018 10 16.0934 0 0
4:15 pm 16:15 Cloudy 28 -2 23 -5 80 80 E 9 15 30.06 1018 10 16.0934 0 0
4:35 pm 16:35 Cloudy 28 -2.2 22 -5.3 80 80 ESE 8 13 30.05 1018 10 16.0934 0 0
4:55 pm 16:55 Cloudy 28 -2.5 23 -5.2 82 82 E 12 19 30.04 1017 10 16.0934 0 0
5:15 pm 17:15 Cloudy 27 -2.6 22 -5.6 80 80 E 9 15 30.04 1017 10 16.0934 0 0
5:35 pm 17:35 Cloudy 27 -2.7 22 -5.3 83 83 ESE 10 17 30.03 1017 10 16.0934 0 0
5:55 pm 17:55 Cloudy 27 -3 22 -5.4 84 84 ESE 9 15 30.04 1017 10 16.0934 0 0
6:15 pm 18:15 Cloudy 26 -3.3 22 -5.5 85 85 ESE 8 13 30.03 1017 10 16.0934 0 0
6:35 pm 18:35 Cloudy 26 -3.2 23 -5.2 86 86 ESE 8 13 30.03 1017 10 16.0934 0 0
6:55 pm 18:55 Cloudy 26 -3.2 23 -5.2 86 86 ESE 7 11 30.04 1017 10 16.0934 0 0
7:15 pm 19:15 Cloudy 26 -3.3 23 -5 88 88 ESE 9 15 30.04 1017 10 16.0934 0 0
7:35 pm 19:35 Cloudy 26 -3.5 23 -5.1 89 89 E 9 15 30.03 1017 10 16.0934 0 0
7:55 pm 19:55 Cloudy 25 -3.7 23 -5.1 90 90 ESE 7 11 30.03 1017 10 16.0934 0 0
8:15 pm 20:15 Cloudy 25 -3.7 23 -5 91 91 SE 6 9 30.03 1017 7 11.26538 0 0
8:35 pm 20:35 Cloudy 25 -3.8 23 -5 91 91 ESE 8 13 30.03 1017 7 11.26538 0 0
8:55 pm 20:55 Cloudy 25 -3.8 23 -5 91 91 ESE 9 15 30.04 1017 7 11.26538 0 0
9:15 pm 21:15 Cloudy 25 -3.9 23 -5 92 92 SE 9 15 30.07 1018 7 11.26538 0 0
9:35 pm 21:35 Cloudy with Mist and Fog 25 -4 23 -4.8 94 94 SE 12 19 30.07 1018 5 8.0467 0 0
9:55 pm 21:55 Cloudy with Mist and Fog 25 -4 23 -4.8 94 94 SE 9 15 30.07 1018 4 6.43736 0 0
10:15 pm 22:15 Cloudy with Mist and Fog 25 -4 24 -4.7 95 95 SE 8 13 30.08 1019 3 4.82802 0 0
10:35 pm 22:35 Cloudy with Mist and Fog 25 -4 24 -4.6 96 96 ESE 8 13 30.06 1018 2.5 4.02335 0 0
10:55 pm 22:55 Cloudy with Mist and Fog 25 -4.1 24 -4.7 96 96 E 6 9 30.04 1017 2 3.21868 0 0
11:15 pm 23:15 Cloudy with Mist and Fog 25 -4.1 24 -4.7 96 96 E 8 13 30.03 1017 1.25 2.011675 0 0
11:35 pm 23:35 Cloudy with Mist and Fog 25 -4.1 24 -4.7 96 96 E 6 9 30.01 1016 1 1.60934 0 0
11:55 pm 23:55 Cloudy with Mist and Fog 25 -4.1 23 -4.8 95 95 E 7 11 30 1016 1.25 2.011675 0 0

Powered by AerisWeather